This is the latest recevied weather packets stored in our database for station/object KD7KCN-5. If no packets are shown the sender has not sent any weather packets the latest 10 day(s).
| Time | Temp. | Humidity | Pressure | Rain* | Wind** | Luminosity | Snow |
|---|---|---|---|---|---|---|---|
| 1777835514 | 21.67° C | 19% | 1012.7 hPa | 0 mm | - | 979 W/m² | - |
| 1777834914 | 22.22° C | 18% | 1012.4 hPa | 0 mm | - | 988 W/m² | - |
| 1777834314 | 22.22° C | 17% | 1012.8 hPa | 0 mm | - | 1007 W/m² | - |
| 1777833714 | 21.67° C | 19% | 1013.1 hPa | 0 mm | - | 1092 W/m² | - |
| 1777833114 | 21.11° C | 17% | 1013.2 hPa | 0 mm | - | 404 W/m² | - |
| 1777832515 | 21.11° C | 19% | 1013.5 hPa | 0 mm | - | 1025 W/m² | - |
| 1777831914 | 21.11° C | 18% | 1013.8 hPa | 0 mm | - | 657 W/m² | - |
| 1777831314 | 21.67° C | 17% | 1013.5 hPa | 0 mm | - | 545 W/m² | - |
| 1777830714 | 21.67° C | 17% | 1013.8 hPa | 0 mm | - | 867 W/m² | - |
| 1777830114 | 21.67° C | 17% | 1013.8 hPa | 0 mm | - | 851 W/m² | - |
| 1777828914 | 21.11° C | 18% | 1014.2 hPa | 0 mm | - | 826 W/m² | - |
| 1777828314 | 22.22° C | 17% | 1014.4 hPa | 0 mm | - | 812 W/m² | - |
| 1777825314 | 20° C | 20% | 1014.9 hPa | 0 mm | - | 779 W/m² | - |
| 1777824114 | 19.44° C | 20% | 1015 hPa | 0 mm | - | 728 W/m² | - |
| 1777823515 | 19.44° C | 22% | 1015.2 hPa | 0 mm | - | 650 W/m² | - |
| 1777822915 | 18.33° C | 23% | 1015.2 hPa | 0 mm | - | 471 W/m² | - |
| 1777822314 | 18.33° C | 25% | 1015.3 hPa | 0 mm | - | 527 W/m² | - |
| 1777821714 | 18.33° C | - | 1015.4 hPa | 0 mm | - | 320 W/m² | - |
| 1777821114 | 18.33° C | 20% | 1015.3 hPa | 0 mm | - | 517 W/m² | - |
| 1777820514 | 17.78° C | 20% | 1015.4 hPa | 0 mm | - | 457 W/m² | - |
| 1777819914 | 17.78° C | 22% | 1015.4 hPa | 0 mm | - | 485 W/m² | - |
| 1777819314 | 17.78° C | 21% | 1015.4 hPa | 0 mm | - | 265 W/m² | - |
| 1777818714 | 16.67° C | 22% | 1015.3 hPa | 0 mm | - | 253 W/m² | - |
| 1777818115 | 16.67° C | 21% | 1015.4 hPa | 0 mm | - | 146 W/m² | - |
| 1777817515 | 16.11° C | 20% | 1015.2 hPa | 0 mm | - | 315 W/m² | - |
* Rain latest hour (hover to see other rain measurements)
** Current wind speed in m/s (hover to see current wind gust speed)